TimeCDT,TemperatureF,Dew PointF,Humidity,Sea Level PressureIn,VisibilityMPH,Wind Direction,Wind SpeedMPH,Gust SpeedMPH,PrecipitationIn,Events,Conditions,WindDirDegrees,DateUTC
12:53 AM,42.1,37.9,85,30.10,10.0,Variable,4.6,-,N/A,,Overcast,0,2013-04-04 05:53:00
1:53 AM,42.1,37.9,85,30.08,10.0,North,3.5,-,N/A,,Overcast,350,2013-04-04 06:53:00
2:53 AM,42.1,37.9,85,30.06,10.0,NW,3.5,-,N/A,,Overcast,310,2013-04-04 07:53:00
3:53 AM,42.1,39.0,89,30.04,7.0,WNW,4.6,-,0.00,Rain,Light Rain,300,2013-04-04 08:53:00
4:53 AM,41.0,39.9,96,30.02,6.0,NNE,9.2,-,0.01,Rain,Light Rain,20,2013-04-04 09:53:00
5:04 AM,41.0,39.2,93,30.02,2.5,North,5.8,-,0.06,Rain,Heavy Rain,350,2013-04-04 10:04:00
5:18 AM,41.0,39.2,93,30.03,3.0,NW,6.9,-,0.10,Rain,Rain,320,2013-04-04 10:18:00
5:34 AM,41.0,39.2,93,30.04,3.0,WNW,5.8,-,0.15,Rain,Rain,300,2013-04-04 10:34:00
5:48 AM,41.0,39.2,93,30.03,6.0,NW,6.9,-,0.16,Rain,Light Rain,320,2013-04-04 10:48:00
5:53 AM,41.0,39.9,96,30.04,7.0,NW,6.9,-,0.16,Rain,Light Rain,310,2013-04-04 10:53:00
6:53 AM,41.0,41.0,100,30.06,8.0,NW,6.9,-,0.00,,Overcast,320,2013-04-04 11:53:00
7:36 AM,41.0,41.0,100,30.06,8.0,NNW,4.6,-,N/A,,Overcast,330,2013-04-04 12:36:00
7:53 AM,41.0,39.9,96,30.08,8.0,NW,6.9,-,N/A,,Overcast,310,2013-04-04 12:53:00
8:53 AM,42.1,41.0,96,30.09,7.0,NW,8.1,-,N/A,,Overcast,320,2013-04-04 13:53:00
9:11 AM,42.8,41.0,93,30.09,6.0,NW,8.1,-,N/A,,Overcast,320,2013-04-04 14:11:00
9:53 AM,43.0,42.1,97,30.09,6.0,North,8.1,-,N/A,,Overcast,350,2013-04-04 14:53:00
10:53 AM,43.0,41.0,93,30.10,8.0,NNW,10.4,-,N/A,,Overcast,340,2013-04-04 15:53:00
11:20 AM,44.6,42.8,93,30.10,10.0,NNW,6.9,-,N/A,,Overcast,340,2013-04-04 16:20:00
11:53 AM,45.0,41.0,86,30.09,10.0,North,10.4,-,N/A,,Overcast,360,2013-04-04 16:53:00
12:53 PM,45.0,41.0,86,30.09,10.0,NW,9.2,-,N/A,,Overcast,320,2013-04-04 17:53:00
1:53 PM,45.0,41.0,86,30.07,10.0,NNW,9.2,-,N/A,,Overcast,330,2013-04-04 18:53:00
2:53 PM,46.0,41.0,83,30.06,10.0,NNW,6.9,-,N/A,,Overcast,330,2013-04-04 19:53:00
3:53 PM,45.0,41.0,86,30.06,6.0,WNW,9.2,-,0.00,Rain,Light Rain,300,2013-04-04 20:53:00
4:37 PM,44.6,42.8,93,30.06,3.0,NW,6.9,-,0.00,Rain,Light Rain,310,2013-04-04 21:37:00
4:50 PM,44.6,42.8,93,30.06,4.0,NW,10.4,-,0.00,,Overcast,310,2013-04-04 21:50:00
4:53 PM,44.1,43.0,96,30.06,5.0,NW,9.2,-,0.00,,Overcast,310,2013-04-04 21:53:00
5:20 PM,44.6,42.8,93,30.06,10.0,NW,9.2,-,N/A,,Overcast,320,2013-04-04 22:20:00
5:53 PM,45.0,43.0,93,30.06,10.0,NW,9.2,-,N/A,,Overcast,310,2013-04-04 22:53:00
6:26 PM,44.6,42.8,93,30.07,10.0,NW,8.1,-,N/A,,Overcast,310,2013-04-04 23:26:00
6:39 PM,44.6,42.8,93,30.07,8.0,NW,6.9,-,N/A,,Overcast,310,2013-04-04 23:39:00
6:53 PM,45.0,42.1,90,30.08,10.0,NW,8.1,-,N/A,,Overcast,310,2013-04-04 23:53:00
7:53 PM,45.0,42.1,90,30.09,10.0,NNW,6.9,-,N/A,,Overcast,340,2013-04-05 00:53:00
8:02 PM,44.6,42.8,93,30.09,10.0,NNW,5.8,-,N/A,,Overcast,330,2013-04-05 01:02:00
8:13 PM,44.6,42.8,93,30.09,10.0,NNW,6.9,-,N/A,,Overcast,330,2013-04-05 01:13:00
8:26 PM,44.6,42.8,93,30.09,10.0,NNW,6.9,-,N/A,,Overcast,330,2013-04-05 01:26:00
8:35 PM,44.6,42.8,93,30.10,10.0,NW,6.9,-,N/A,,Overcast,320,2013-04-05 01:35:00
8:53 PM,45.0,42.1,90,30.10,10.0,NW,6.9,-,N/A,,Overcast,320,2013-04-05 01:53:00
9:53 PM,45.0,42.1,90,30.11,10.0,NW,3.5,-,N/A,,Overcast,320,2013-04-05 02:53:00
10:53 PM,44.1,41.0,89,30.13,10.0,WNW,4.6,-,N/A,,Overcast,290,2013-04-05 03:53:00
11:53 PM,44.1,41.0,89,30.13,10.0,Calm,Calm,-,N/A,,Overcast,0,2013-04-05 04:53:00